Weather History for Fort Leonard Wood, MO

Change the Weather History Date:

Sunday, May 12, 2013

  Actual Average Record
Temperature  
Mean Temperature 48 °F -  
Max Temperature 64 °F 73 °F 89 °F (2005)
Min Temperature 32 °F 56 °F 32 °F (2013)
Degree Days  
Heating Degree Days 17    
Moisture  
Dew Point 31 °F    
Average Humidity 51    
Maximum Humidity 99    
Minimum Humidity 23    
Precipitation  
Precipitation 0.00 in - - ()
Sea Level Pressure  
Sea Level Pressure 30.22 in    
Wind  
Wind Speed 5 mph (NW)    
Max Wind Speed 13 mph    
Max Gust Speed 20 mph    
Visibility 10 miles    
Events      
Averages and records for this station are not official NWS values.
T = Trace of Precipitation, MM = Missing Value Source: NWS Daily Summary

Daily Weather History Graph

Daily Weather History Graph

Search for Another Location

Airport:

Trip Planner

Search our weather history database for the weather conditions in past years. The results will help you decide how hot, cold, wet, or windy it might be!

Date:

Astronomy

May. 12, 2013 Rise Set
Actual Time 6:01 AM CDT 8:09 PM CDT
Civil Twilight 5:32 AM CDT 8:38 PM CDT
Nautical Twilight 4:56 AM CDT 9:14 PM CDT
Astronomical Twilight 4:17 AM CDT 9:52 PM CDT
Moon 7:57 AM CDT (5/12) 10:35 PM CDT (5/12)
Length of Visible Light 15h 06m
Length of Day
14h 07m
Waxing Crescent, 7% of the Moon is Illuminated
May 12
Waxing Crescent
May 17
First Quarter
May 24
Full
May 31
Last Quarter
Jun 8
New

Hourly Weather History & Observations

Time (CDT) Temp. Windchill Dew Point Humidity Pressure Visibility Wind Dir Wind Speed Gust Speed Precip Events Conditions
12:58 AM 45.3 °F 43.0 °F 33.6 °F 64% 30.21 in 10.0 mi North 4.6 mph - N/A   Clear
1:58 AM 43.7 °F 42.1 °F 33.1 °F 66% 30.22 in 10.0 mi NW 3.5 mph - N/A   Clear
2:58 AM 41.2 °F 39.2 °F 32.9 °F 72% 30.22 in 10.0 mi NW 3.5 mph - N/A   Clear
3:58 AM 36.9 °F 34.3 °F 34.9 °F 93% 30.22 in 10.0 mi WNW 3.5 mph - N/A   Clear
4:58 AM 34.3 °F - 33.4 °F 97% 30.23 in 10.0 mi WSW 2.3 mph - N/A   Clear
5:58 AM 32.9 °F 28.5 °F 32.7 °F 99% 30.24 in 10.0 mi WSW 4.6 mph - N/A   Clear
6:58 AM 38.5 °F 36.1 °F 33.8 °F 83% 30.25 in 10.0 mi West 3.5 mph - N/A   Clear
7:58 AM 46.2 °F 44.1 °F 34.0 °F 62% 30.26 in 10.0 mi Variable 4.6 mph - N/A   Clear
8:58 AM 50.2 °F - 32.0 °F 50% 30.28 in 10.0 mi NW 4.6 mph - N/A   Clear
9:58 AM 54.0 °F - 27.9 °F 37% 30.30 in 10.0 mi NNW 4.6 mph - N/A   Clear
10:58 AM 56.1 °F - 26.6 °F 32% 30.28 in 10.0 mi Variable 2.3 mph - N/A   Clear
11:58 AM 57.7 °F - 26.2 °F 30% 30.26 in 10.0 mi North 11.5 mph 18.4 mph N/A   Clear
12:58 PM 59.4 °F - 27.0 °F 29% 30.25 in 10.0 mi North 8.1 mph 16.1 mph N/A   Partly Cloudy
1:58 PM 61.3 °F - 28.0 °F 28% 30.25 in 10.0 mi Variable 6.9 mph 16.1 mph N/A   Partly Cloudy
2:05 PM 60.8 °F - 28.4 °F 29% 30.22 in 10.0 mi NNW 12.7 mph - N/A   Partly Cloudy
2:58 PM 62.2 °F - 25.2 °F 24% 30.22 in 10.0 mi NNW 5.8 mph 19.6 mph N/A   Clear
3:58 PM 63.9 °F - 24.8 °F 23% 30.19 in 10.0 mi NW 8.1 mph - N/A   Clear
4:58 PM 64.2 °F - 27.0 °F 24% 30.19 in 10.0 mi Variable 5.8 mph - N/A   Clear
5:58 PM 64.0 °F - 29.1 °F 27% 30.18 in 10.0 mi NW 6.9 mph - N/A   Clear
6:58 PM 62.8 °F - 25.9 °F 25% 30.16 in 10.0 mi WNW 4.6 mph - N/A   Clear
7:58 PM 58.1 °F - 30.6 °F 35% 30.17 in 10.0 mi NNW 3.5 mph - N/A   Clear
8:58 PM 54.1 °F - 32.5 °F 44% 30.18 in 10.0 mi North 4.6 mph - N/A   Clear
9:58 PM 51.8 °F - 32.4 °F 48% 30.20 in 10.0 mi North 4.6 mph - N/A   Partly Cloudy
10:58 PM 47.5 °F - 40.5 °F 77% 30.20 in 10.0 mi South 3.5 mph - N/A   Scattered Clouds
11:55 PM 44.6 °F - 41.0 °F 87% 30.19 in 10.0 mi SSE 1.2 mph - N/A   Scattered Clouds